This demonstration page uses our WeatherBlox Daily Observations layout. Learn more.

Left ArrowRight Arrow

39.92423, -83.80882

Hourly Observations for March 25, 2020

Temp ( °F °C ) Dew Point ( °F °C ) Humidity (%) Winds ( mph kmh ) Pressure ( in mb ) Visibility ( mi km ) Precip ( " mm )
12:56 am 00:56 Cloudy 41 5 39 3.9 93 93 ENE 8 13 29.9 1013 9 14.48406 0.01 0.254
1:56 am 01:56 Cloudy 40 4.4 39 3.9 97 97 NE 8 13 29.9 1013 8 12.87472 0.01 0.254
2:56 am 02:56 Cloudy 40 4.4 39 3.9 97 97 N 9 15 29.9 1013 7 11.26538 0.12 3.048
3:56 am 03:56 Cloudy with Mist and Fog 39 3.9 39 3.9 100 100 N 9 15 29.88 1012 6 9.65604 0.01 0.254
4:45 am 04:45 Cloudy with Mist and Fog 39 4 37 3 93 93 N 10 17 29.91 1013 5 8.0467 0 0
4:56 am 04:56 Cloudy with Mist and Fog 38 3.3 38 3.3 100 100 NNW 10 17 29.9 1013 6 9.65604 0 0
5:56 am 05:56 Mostly Cloudy with Mist and Fog 37 2.8 37 2.8 100 100 NNW 8 13 29.92 1013 6 9.65604 0 0
6:56 am 06:56 Clear with Mist and Fog 35 1.7 35 1.7 100 100 NNW 3 6 29.95 1014 6 9.65604 0 0
7:56 am 07:56 Sunny with Mist and Fog 34 1.1 34 1.1 100 100 N 3 6 29.97 1015 3 4.82802 0.05 1.27
8:56 am 08:56 Partly Cloudy with Mist and Fog 38 3.3 37 2.8 97 97 NNW 7 11 29.98 1015 4 6.43736 0.27 6.858
9:10 am 09:10 Mostly Cloudy with Mist and Fog 37 3 37 3 100 100 NW 9 15 30.02 1017 3 4.82802 0.02 0.508
9:18 am 09:18 Cloudy with Mist and Fog 37 3 37 3 100 100 WNW 9 15 30.02 1017 2 3.21868 0.03 0.762
9:23 am 09:23 Cloudy with Mist and Fog 37 3 37 3 100 100 WNW 8 13 30.03 1017 1 1.60934 0.03 0.762
9:28 am 09:28 Cloudy with Mist and Fog 37 3 37 3 100 100 NW 9 15 30.03 1017 0.75 1.207005 0.03 0.762
9:56 am 09:56 Cloudy with Mist and Fog 37 2.8 37 2.8 100 100 NW 7 11 30.01 1016 0.75 1.207005 0.03 0.762
9:58 am 09:58 Cloudy with Mist and Fog 37 3 37 3 100 100 NW 6 9 30.03 1017 1.25 2.011675 0 0
10:09 am 10:09 Cloudy with Mist and Fog 37 3 37 3 100 100 WNW 6 9 30.03 1017 0.75 1.207005 0 0
10:19 am 10:19 Cloudy with Mist and Fog 37 3 37 3 100 100 NW 8 13 30.03 1017 1.5 2.41401 0 0
10:22 am 10:22 Cloudy with Mist and Fog 37 3 37 3 100 100 NNW 8 13 30.03 1017 3 4.82802 0 0
10:56 am 10:56 Cloudy with Mist and Fog 41 5 40 4.4 96 96 VRB 5 7 30.01 1016 6 9.65604 0.22 5.588
11:16 am 11:16 Mostly Sunny 43 6 39 4 87 87 NNW 3 6 30.01 1016 9 14.48406 0.05 1.27
11:56 am 11:56 Sunny 48 8.9 41 5 77 77 VRB 3 6 30 1016 10 16.0934 0.12 3.048
12:56 pm 12:56 Sunny 52 11.1 41 5 66 66 Calm 29.99 1016 10 16.0934 0 0
1:56 pm 13:56 Sunny 54 12.2 44 6.7 69 69 WNW 8 13 29.99 1016 10 16.0934 0 0
2:56 pm 14:56 Sunny 56 13.3 43 6.1 62 62 W 9 15 29.99 1016 10 16.0934 0 0
3:56 pm 15:56 Sunny 58 14.4 43 6.1 58 58 W 9 15 29.97 1015 10 16.0934 1.11 28.194
4:56 pm 16:56 Sunny 60 15.6 41 5 50 50 W 6 9 29.97 1015 10 16.0934 0.1 2.54
5:56 pm 17:56 Sunny 60 15.6 42 5.6 52 52 W 7 11 29.96 1014 10 16.0934 0.04 1.016
6:56 pm 18:56 Sunny 59 15 39 3.9 48 48 Calm 29.95 1014 10 16.0934 0.21 5.334
7:56 pm 19:56 Clear 56 13.3 39 3.9 53 53 Calm 29.96 1015 10 16.0934 0.79 20.066
8:56 pm 20:56 Clear 53 11.7 40 4.4 61 61 Calm 29.98 1015 10 16.0934 0 0
9:56 pm 21:56 Clear 46 7.8 41 5 83 83 ESE 5 7 29.99 1016 10 16.0934 0 0
10:56 pm 22:56 Clear 48 8.9 41 5 77 77 SSE 8 13 29.98 1015 10 16.0934 0 0
11:56 pm 23:56 Clear 47 8.3 41 5 80 80 SE 7 11 29.97 1015 10 16.0934 0 0

Powered by AerisWeather